Time,TemperatureF,DewpointF,PressureIn,WindDirection,WindDirectionDegrees,WindSpeedMPH,WindSpeedGustMPH,Humidity,HourlyPrecipIn,Conditions,Clouds,dailyrainin,SoftwareType,DateUTC
2013-05-12 00:00:00,59.9,54.7,29.59,WSW,248,8.0,16.3,83,0.71,,,0.87,VWS V15.00,2013-05-12 04:00:00,
2013-05-12 00:01:00,59.0,53.8,29.56,WNW,290,5.3,7.6,83,0.12,,,0.00,VWS V14.01,2013-05-12 04:01:00,
2013-05-12 00:06:00,59.0,53.8,29.56,WSW,254,8.0,9.4,83,0.12,,,0.00,VWS V14.01,2013-05-12 04:06:00,
2013-05-12 00:11:00,58.8,54.0,29.56,WSW,241,8.9,9.8,84,0.12,,,0.00,VWS V14.01,2013-05-12 04:11:00,
2013-05-12 00:16:00,58.6,53.8,29.56,SW,225,10.0,13.2,84,0.12,,,0.00,VWS V14.01,2013-05-12 04:16:00,
2013-05-12 00:21:00,58.5,53.7,29.56,WSW,248,8.0,13.2,84,0.12,,,0.00,VWS V14.01,2013-05-12 04:21:00,
2013-05-12 00:26:00,58.5,53.7,29.56,SW,224,8.9,13.2,84,0.12,,,0.00,VWS V14.01,2013-05-12 04:26:00,
2013-05-12 00:31:00,58.3,53.5,29.56,SW,231,10.0,13.2,84,0.12,,,0.00,VWS V14.01,2013-05-12 04:31:00,
2013-05-12 00:36:00,58.3,53.5,29.56,SW,214,5.3,13.2,84,0.12,,,0.00,VWS V14.01,2013-05-12 04:36:00,
2013-05-12 00:41:00,58.1,53.3,29.56,WSW,243,10.0,13.2,84,0.12,,,0.00,VWS V14.01,2013-05-12 04:41:00,
2013-05-12 00:46:00,58.1,53.3,29.56,West,278,5.8,13.2,84,0.12,,,0.00,VWS V14.01,2013-05-12 04:46:00,
2013-05-12 00:51:00,57.9,53.1,29.56,WSW,255,8.0,13.2,84,0.12,,,0.00,VWS V14.01,2013-05-12 04:51:00,
2013-05-12 00:56:00,57.9,53.1,29.56,SSW,209,12.7,13.2,84,0.12,,,0.00,VWS V14.01,2013-05-12 04:56:00,
2013-05-12 01:00:00,59.0,53.8,29.56,WSW,257,6.7,14.1,83,0.24,,,0.00,VWS V15.00,2013-05-12 05:00:00,
2013-05-12 01:01:00,57.7,53.0,29.56,WSW,237,7.6,8.0,84,0.00,,,0.00,VWS V14.01,2013-05-12 05:01:00,
2013-05-12 01:06:00,57.7,53.0,29.56,SW,225,4.9,10.5,84,0.00,,,0.00,VWS V14.01,2013-05-12 05:06:00,
2013-05-12 01:11:00,57.7,53.0,29.56,WSW,240,7.6,10.5,84,0.00,,,0.00,VWS V14.01,2013-05-12 05:11:00,
2013-05-12 01:16:00,57.7,53.0,29.56,SW,225,1.8,10.5,84,0.00,,,0.00,VWS V14.01,2013-05-12 05:16:00,
2013-05-12 01:21:00,57.9,53.1,29.53,SW,233,4.9,10.5,84,0.00,,,0.00,VWS V14.01,2013-05-12 05:21:00,
2013-05-12 01:26:00,57.7,53.0,29.53,WSW,251,10.5,11.4,84,0.00,,,0.00,VWS V14.01,2013-05-12 05:26:00,
2013-05-12 01:31:00,57.7,53.0,29.53,SW,217,5.8,11.4,84,0.00,,,0.00,VWS V14.01,2013-05-12 05:31:00,
2013-05-12 01:36:00,57.7,53.0,29.53,SW,232,12.3,12.7,84,0.00,,,0.00,VWS V14.01,2013-05-12 05:36:00,
2013-05-12 01:41:00,57.7,53.0,29.53,WSW,245,8.0,12.7,84,0.00,,,0.00,VWS V14.01,2013-05-12 05:41:00,
2013-05-12 01:46:00,57.7,53.0,29.53,SW,227,4.4,14.1,84,0.00,,,0.00,VWS V14.01,2013-05-12 05:46:00,
2013-05-12 01:51:00,57.9,53.4,29.53,WSW,257,7.1,14.1,85,0.00,,,0.00,VWS V14.01,2013-05-12 05:51:00,
2013-05-12 01:56:00,57.9,53.4,29.53,WSW,248,6.7,14.1,85,0.00,,,0.00,VWS V14.01,2013-05-12 05:56:00,
2013-05-12 02:00:00,57.9,53.1,29.56,WSW,238,8.0,13.2,84,0.12,,,0.00,VWS V15.00,2013-05-12 06:00:00,
2013-05-12 02:01:00,58.1,53.6,29.53,SSW,195,12.7,12.7,85,0.00,,,0.00,VWS V14.01,2013-05-12 06:01:00,
2013-05-12 02:06:00,58.1,53.6,29.53,WNW,282,5.8,12.7,85,0.00,,,0.00,VWS V14.01,2013-05-12 06:06:00,
2013-05-12 02:11:00,58.5,54.3,29.53,SW,236,5.8,12.7,86,0.00,,,0.00,VWS V14.01,2013-05-12 06:11:00,
2013-05-12 02:16:00,58.6,54.5,29.53,West,262,9.4,14.5,86,0.00,,,0.00,VWS V14.01,2013-05-12 06:16:00,
2013-05-12 02:21:00,58.8,54.7,29.53,WSW,254,5.3,14.5,86,0.00,,,0.00,VWS V14.01,2013-05-12 06:21:00,
2013-05-12 02:26:00,59.0,54.8,29.53,SW,227,7.6,14.5,86,0.00,,,0.00,VWS V14.01,2013-05-12 06:26:00,
2013-05-12 02:31:00,59.2,55.0,29.53,SSE,156,7.1,14.5,86,0.00,,,0.00,VWS V14.01,2013-05-12 06:31:00,
2013-05-12 02:36:00,59.4,55.2,29.50,SW,236,5.8,14.5,86,0.00,,,0.00,VWS V14.01,2013-05-12 06:36:00,
2013-05-12 02:41:00,59.5,55.3,29.50,SSW,213,9.4,14.5,86,0.00,,,0.00,VWS V14.01,2013-05-12 06:41:00,
2013-05-12 02:46:00,59.5,55.3,29.50,SSW,199,8.0,14.5,86,0.00,,,0.00,VWS V14.01,2013-05-12 06:46:00,
2013-05-12 02:51:00,59.5,55.3,29.50,SSW,211,9.4,14.5,86,0.00,,,0.00,VWS V14.01,2013-05-12 06:51:00,
2013-05-12 02:56:00,59.5,55.3,29.50,SSW,202,4.9,14.5,86,0.00,,,0.00,VWS V14.01,2013-05-12 06:56:00,
2013-05-12 03:00:00,58.1,53.6,29.53,SE,127,7.1,14.1,85,0.00,,,0.00,VWS V15.00,2013-05-12 07:00:00,
2013-05-12 03:01:00,59.7,55.5,29.50,SSW,199,4.9,7.1,86,0.00,,,0.00,VWS V14.01,2013-05-12 07:01:00,
2013-05-12 03:06:00,59.5,55.3,29.50,WSW,243,5.8,10.5,86,0.00,,,0.00,VWS V14.01,2013-05-12 07:06:00,
2013-05-12 03:11:00,59.5,55.3,29.50,SW,220,8.9,10.5,86,0.00,,,0.00,VWS V14.01,2013-05-12 07:11:00,
2013-05-12 03:16:00,59.4,55.2,29.50,SW,216,7.6,10.5,86,0.00,,,0.00,VWS V14.01,2013-05-12 07:16:00,
2013-05-12 03:21:00,59.2,55.0,29.50,SSW,208,5.8,10.5,86,0.00,,,0.00,VWS V14.01,2013-05-12 07:21:00,
2013-05-12 03:26:00,59.2,55.0,29.50,WSW,254,4.4,11.4,86,0.00,,,0.00,VWS V14.01,2013-05-12 07:26:00,
2013-05-12 03:31:00,59.2,55.0,29.50,SW,221,4.9,13.2,86,0.00,,,0.00,VWS V14.01,2013-05-12 07:31:00,
2013-05-12 03:36:00,59.2,55.0,29.50,WSW,240,5.3,13.2,86,0.00,,,0.00,VWS V14.01,2013-05-12 07:36:00,
2013-05-12 03:41:00,59.2,55.0,29.50,SW,227,9.8,13.2,86,0.00,,,0.00,VWS V14.01,2013-05-12 07:41:00,
2013-05-12 03:46:00,59.2,55.0,29.50,South,191,5.3,13.2,86,0.00,,,0.00,VWS V14.01,2013-05-12 07:46:00,
2013-05-12 03:51:00,59.2,55.0,29.50,SW,224,4.9,13.2,86,0.00,,,0.00,VWS V14.01,2013-05-12 07:51:00,
2013-05-12 03:56:00,59.2,55.0,29.50,West,272,6.7,13.2,86,0.00,,,0.00,VWS V14.01,2013-05-12 07:56:00,
2013-05-12 04:00:00,59.7,55.5,29.50,SSW,194,7.1,14.5,86,0.00,,,0.00,VWS V15.00,2013-05-12 08:00:00,
2013-05-12 04:01:00,59.2,55.0,29.50,SSW,206,1.8,9.8,86,0.00,,,0.00,VWS V14.01,2013-05-12 08:01:00,
2013-05-12 04:06:00,59.4,55.5,29.50,SW,219,4.4,9.8,87,0.00,,,0.00,VWS V14.01,2013-05-12 08:06:00,
2013-05-12 04:11:00,59.4,55.5,29.50,SW,216,9.8,11.4,87,0.00,,,0.00,VWS V14.01,2013-05-12 08:11:00,
2013-05-12 04:16:00,59.4,55.5,29.50,South,176,5.8,11.4,87,0.00,,,0.00,VWS V14.01,2013-05-12 08:16:00,
2013-05-12 04:21:00,59.4,55.2,29.47,SW,223,8.9,13.2,86,0.00,,,0.00,VWS V14.01,2013-05-12 08:21:00,
2013-05-12 04:26:00,59.4,55.2,29.47,WSW,247,9.4,13.2,86,0.00,,,0.00,VWS V14.01,2013-05-12 08:26:00,
2013-05-12 04:31:00,59.2,55.0,29.47,SW,231,9.8,13.2,86,0.00,,,0.00,VWS V14.01,2013-05-12 08:31:00,
2013-05-12 04:36:00,59.2,55.0,29.47,South,185,4.9,14.5,86,0.00,,,0.00,VWS V14.01,2013-05-12 08:36:00,
2013-05-12 04:41:00,59.0,54.8,29.47,SSW,210,8.0,14.5,86,0.00,,,0.00,VWS V14.01,2013-05-12 08:41:00,
2013-05-12 04:46:00,58.8,55.0,29.47,WSW,247,8.0,14.5,87,0.00,,,0.00,VWS V14.01,2013-05-12 08:46:00,
2013-05-12 04:51:00,58.8,55.0,29.50,SSW,194,7.6,14.5,87,0.00,,,0.00,VWS V14.01,2013-05-12 08:51:00,
2013-05-12 04:56:00,58.6,54.8,29.50,SW,233,9.8,14.5,87,0.00,,,0.00,VWS V14.01,2013-05-12 08:56:00,
2013-05-12 05:00:00,58.6,54.8,29.50,WSW,244,8.0,9.4,87,0.00,,,0.00,VWS V14.01,2013-05-12 09:00:00,
2013-05-12 05:05:00,58.6,54.8,29.50,West,265,6.7,10.0,87,0.00,,,0.00,VWS V14.01,2013-05-12 09:05:00,
2013-05-12 05:10:00,58.5,54.6,29.50,SSW,209,5.3,10.0,87,0.00,,,0.00,VWS V14.01,2013-05-12 09:10:00,
2013-05-12 05:15:00,58.5,54.6,29.50,West,275,5.3,10.0,87,0.00,,,0.00,VWS V14.01,2013-05-12 09:15:00,
2013-05-12 05:20:00,58.5,54.6,29.50,WSW,240,4.4,11.8,87,0.00,,,0.00,VWS V14.01,2013-05-12 09:20:00,
2013-05-12 05:25:00,58.5,54.6,29.50,West,263,7.6,11.8,87,0.00,,,0.00,VWS V14.01,2013-05-12 09:25:00,
2013-05-12 05:30:00,58.3,54.4,29.50,WNW,288,5.3,11.8,87,0.00,,,0.00,VWS V14.01,2013-05-12 09:30:00,
2013-05-12 05:35:00,58.3,54.4,29.50,WSW,247,5.3,11.8,87,0.00,,,0.00,VWS V14.01,2013-05-12 09:35:00,
2013-05-12 05:40:00,58.3,54.4,29.50,SW,217,5.3,11.8,87,0.00,,,0.00,VWS V14.01,2013-05-12 09:40:00,
2013-05-12 05:45:00,58.3,54.4,29.50,West,281,5.8,11.8,87,0.00,,,0.00,VWS V14.01,2013-05-12 09:45:00,
2013-05-12 05:50:00,58.1,54.3,29.50,SW,236,4.4,11.8,87,0.00,,,0.00,VWS V14.01,2013-05-12 09:50:00,
2013-05-12 05:55:00,58.1,54.3,29.50,SW,220,1.8,11.8,87,0.00,,,0.00,VWS V14.01,2013-05-12 09:55:00,
2013-05-12 06:00:00,58.1,54.3,29.50,SW,234,4.4,8.5,87,0.04,,,0.04,VWS V14.01,2013-05-12 10:00:00,
2013-05-12 06:05:00,58.1,54.6,29.50,SSE,157,5.8,9.4,88,0.04,,,0.04,VWS V14.01,2013-05-12 10:05:00,
2013-05-12 06:10:00,58.3,54.8,29.50,SSE,151,8.9,9.4,88,0.04,,,0.04,VWS V14.01,2013-05-12 10:10:00,
2013-05-12 06:15:00,58.5,54.9,29.50,SW,221,5.3,9.4,88,0.04,,,0.04,VWS V14.01,2013-05-12 10:15:00,
2013-05-12 06:20:00,58.6,55.1,29.50,SW,217,5.3,9.4,88,0.04,,,0.04,VWS V14.01,2013-05-12 10:20:00,
2013-05-12 06:25:00,58.6,55.1,29.50,SW,219,4.9,9.4,88,0.04,,,0.04,VWS V14.01,2013-05-12 10:25:00,
2013-05-12 06:30:00,58.6,55.1,29.50,SW,228,4.4,9.4,88,0.04,,,0.04,VWS V14.01,2013-05-12 10:30:00,
2013-05-12 06:35:00,58.5,54.9,29.50,WSW,243,8.0,9.8,88,0.04,,,0.04,VWS V14.01,2013-05-12 10:35:00,
2013-05-12 06:40:00,58.5,54.9,29.50,SW,224,5.3,9.8,88,0.04,,,0.04,VWS V14.01,2013-05-12 10:40:00,
2013-05-12 06:45:00,58.5,54.9,29.50,SW,224,1.8,9.8,88,0.04,,,0.04,VWS V14.01,2013-05-12 10:45:00,
2013-05-12 06:50:00,58.3,54.8,29.47,SW,220,4.4,9.8,88,0.04,,,0.04,VWS V14.01,2013-05-12 10:50:00,
2013-05-12 06:55:00,58.3,54.8,29.47,SW,229,5.8,9.8,88,0.04,,,0.04,VWS V14.01,2013-05-12 10:55:00,
2013-05-12 07:00:00,58.3,54.8,29.47,West,266,4.9,5.8,88,0.04,,,0.04,VWS V14.01,2013-05-12 11:00:00,
2013-05-12 07:05:00,58.1,54.6,29.50,SW,223,5.3,7.1,88,0.04,,,0.04,VWS V14.01,2013-05-12 11:05:00,
2013-05-12 07:10:00,58.1,54.6,29.50,WSW,249,5.3,8.0,88,0.04,,,0.04,VWS V14.01,2013-05-12 11:10:00,
2013-05-12 07:15:00,57.9,54.4,29.50,SW,234,1.8,8.0,88,0.04,,,0.04,VWS V14.01,2013-05-12 11:15:00,
2013-05-12 07:20:00,57.9,54.4,29.47,SW,217,1.8,8.0,88,0.04,,,0.04,VWS V14.01,2013-05-12 11:20:00,
2013-05-12 07:25:00,57.9,54.4,29.47,WSW,241,5.8,8.0,88,0.04,,,0.04,VWS V14.01,2013-05-12 11:25:00,
2013-05-12 07:30:00,57.7,53.9,29.47,WSW,256,4.9,8.0,87,0.04,,,0.04,VWS V14.01,2013-05-12 11:30:00,
2013-05-12 07:35:00,57.7,54.2,29.47,SW,232,5.8,8.0,88,0.04,,,0.04,VWS V14.01,2013-05-12 11:35:00,
2013-05-12 07:40:00,57.7,53.9,29.47,West,261,5.3,8.0,87,0.04,,,0.04,VWS V14.01,2013-05-12 11:40:00,
2013-05-12 07:45:00,57.6,53.7,29.47,West,276,5.3,8.0,87,0.12,,,0.12,VWS V14.01,2013-05-12 11:45:00,
2013-05-12 07:50:00,57.4,53.5,29.47,WSW,250,5.8,8.0,87,0.12,,,0.12,VWS V14.01,2013-05-12 11:50:00,
2013-05-12 07:55:00,57.2,53.4,29.47,SW,228,5.3,8.0,87,0.12,,,0.12,VWS V14.01,2013-05-12 11:55:00,
2013-05-12 08:00:00,57.2,53.4,29.47,West,281,4.9,5.3,87,0.08,,,0.12,VWS V14.01,2013-05-12 12:00:00,
2013-05-12 08:05:00,57.2,53.4,29.47,WSW,238,5.8,5.8,87,0.08,,,0.12,VWS V14.01,2013-05-12 12:05:00,
2013-05-12 08:10:00,57.2,53.4,29.47,SSW,210,4.4,6.7,87,0.08,,,0.12,VWS V14.01,2013-05-12 12:10:00,
2013-05-12 08:15:00,57.4,53.9,29.47,SSW,210,4.4,7.1,88,0.08,,,0.12,VWS V14.01,2013-05-12 12:15:00,
2013-05-12 08:20:00,57.6,54.0,29.47,West,259,4.4,7.1,88,0.08,,,0.12,VWS V14.01,2013-05-12 12:20:00,
2013-05-12 08:25:00,57.4,53.5,29.47,West,275,5.3,8.0,87,0.08,,,0.12,VWS V14.01,2013-05-12 12:25:00,
2013-05-12 08:30:00,57.2,53.4,29.47,SW,223,5.8,8.0,87,0.08,,,0.12,VWS V14.01,2013-05-12 12:30:00,
2013-05-12 08:35:00,57.2,53.4,29.47,West,267,1.8,8.0,87,0.08,,,0.12,VWS V14.01,2013-05-12 12:35:00,
2013-05-12 08:40:00,57.4,53.5,29.47,South,186,1.8,8.0,87,0.08,,,0.12,VWS V14.01,2013-05-12 12:40:00,
2013-05-12 08:45:00,57.4,53.5,29.47,WSW,251,4.9,8.0,87,0.08,,,0.12,VWS V14.01,2013-05-12 12:45:00,
2013-05-12 08:50:00,57.2,53.4,29.47,WSW,257,5.3,8.0,87,0.08,,,0.12,VWS V14.01,2013-05-12 12:50:00,
2013-05-12 08:55:00,57.2,53.4,29.47,WSW,257,4.9,8.0,87,0.08,,,0.12,VWS V14.01,2013-05-12 12:55:00,
2013-05-12 09:00:00,57.2,53.1,29.47,WSW,257,5.8,5.8,86,0.00,,,0.12,VWS V14.01,2013-05-12 13:00:00,
2013-05-12 09:05:00,57.2,53.1,29.47,SW,224,9.4,9.4,86,0.00,,,0.12,VWS V14.01,2013-05-12 13:05:00,
2013-05-12 09:10:00,57.2,53.1,29.47,WSW,239,6.7,9.8,86,0.00,,,0.12,VWS V14.01,2013-05-12 13:10:00,
2013-05-12 09:15:00,57.6,53.7,29.47,SW,223,4.9,9.8,87,0.00,,,0.12,VWS V14.01,2013-05-12 13:15:00,
2013-05-12 09:20:00,58.1,54.3,29.44,South,182,9.4,9.8,87,0.00,,,0.12,VWS V14.01,2013-05-12 13:20:00,
2013-05-12 09:25:00,58.8,55.0,29.44,West,263,5.3,9.8,87,0.00,,,0.12,VWS V14.01,2013-05-12 13:25:00,
2013-05-12 09:30:00,58.8,54.7,29.44,WNW,293,8.0,9.8,86,0.00,,,0.12,VWS V14.01,2013-05-12 13:30:00,
2013-05-12 09:35:00,57.9,52.5,29.47,West,266,6.7,9.8,82,0.00,,,0.12,VWS V14.01,2013-05-12 13:35:00,
2013-05-12 09:40:00,57.6,52.1,29.47,WSW,255,7.1,9.8,82,0.00,,,0.12,VWS V14.01,2013-05-12 13:40:00,
2013-05-12 09:45:00,57.7,52.3,29.47,WSW,254,5.8,9.8,82,0.00,,,0.12,VWS V14.01,2013-05-12 13:45:00,
2013-05-12 09:50:00,57.6,52.1,29.47,NW,306,5.3,9.8,82,0.00,,,0.12,VWS V14.01,2013-05-12 13:50:00,
2013-05-12 09:55:00,57.6,52.1,29.47,West,259,4.4,9.8,82,0.00,,,0.12,VWS V14.01,2013-05-12 13:55:00,
2013-05-12 10:00:00,57.6,52.1,29.47,SW,232,5.3,5.8,82,0.00,,,0.12,VWS V14.01,2013-05-12 14:00:00,
2013-05-12 10:05:00,57.6,52.1,29.47,SW,236,8.0,8.0,82,0.00,,,0.12,VWS V14.01,2013-05-12 14:05:00,
2013-05-12 10:10:00,57.6,52.1,29.47,SW,220,5.8,8.0,82,0.00,,,0.12,VWS V14.01,2013-05-12 14:10:00,
2013-05-12 10:15:00,57.9,52.8,29.47,SW,228,4.9,8.0,83,0.00,,,0.12,VWS V14.01,2013-05-12 14:15:00,
2013-05-12 10:20:00,58.1,53.0,29.47,SW,233,4.4,9.4,83,0.00,,,0.12,VWS V14.01,2013-05-12 14:20:00,
2013-05-12 10:25:00,58.6,53.5,29.47,SW,232,5.8,9.4,83,0.00,,,0.12,VWS V14.01,2013-05-12 14:25:00,
2013-05-12 10:30:00,59.2,54.0,29.47,SW,223,7.6,9.4,83,0.00,,,0.12,VWS V14.01,2013-05-12 14:30:00,
2013-05-12 10:35:00,59.5,54.0,29.47,WSW,238,5.3,9.4,82,0.00,,,0.12,VWS V14.01,2013-05-12 14:35:00,
2013-05-12 10:40:00,59.4,53.5,29.47,WNW,291,5.3,9.4,81,0.00,,,0.12,VWS V14.01,2013-05-12 14:40:00,
2013-05-12 10:45:00,59.2,52.7,29.47,West,281,4.0,9.4,79,0.00,,,0.12,VWS V14.01,2013-05-12 14:45:00,
2013-05-12 10:50:00,59.2,52.7,29.44,WSW,242,4.9,9.4,79,0.00,,,0.12,VWS V14.01,2013-05-12 14:50:00,
2013-05-12 10:55:00,59.4,52.9,29.44,WSW,240,4.4,9.4,79,0.00,,,0.12,VWS V14.01,2013-05-12 14:55:00,
2013-05-12 11:00:00,59.4,52.9,29.44,WSW,247,4.4,4.4,79,0.00,,,0.12,VWS V14.01,2013-05-12 15:00:00,
2013-05-12 11:05:00,59.4,52.5,29.47,West,271,7.1,7.6,78,0.00,,,0.12,VWS V14.01,2013-05-12 15:05:00,
2013-05-12 11:10:00,59.4,52.5,29.47,WSW,241,7.1,9.4,78,0.00,,,0.12,VWS V14.01,2013-05-12 15:10:00,
2013-05-12 11:15:00,59.7,53.2,29.47,SW,228,4.9,9.4,79,0.00,,,0.12,VWS V14.01,2013-05-12 15:15:00,
2013-05-12 11:20:00,60.3,53.4,29.47,SSW,209,4.9,10.5,78,0.00,,,0.12,VWS V14.01,2013-05-12 15:20:00,
2013-05-12 11:25:00,61.0,54.1,29.47,SW,228,4.4,10.5,78,0.00,,,0.12,VWS V14.01,2013-05-12 15:25:00,
2013-05-12 11:30:00,61.0,53.7,29.47,West,267,4.4,10.5,77,0.00,,,0.12,VWS V14.01,2013-05-12 15:30:00,
2013-05-12 11:35:00,61.2,53.5,29.47,SSW,208,7.6,10.5,76,0.00,,,0.12,VWS V14.01,2013-05-12 15:35:00,
2013-05-12 11:40:00,61.3,53.4,29.47,SSW,208,4.9,10.5,75,0.00,,,0.12,VWS V14.01,2013-05-12 15:40:00,
2013-05-12 11:45:00,61.9,53.9,29.47,SW,224,4.9,10.5,75,0.00,,,0.12,VWS V14.01,2013-05-12 15:45:00,
2013-05-12 11:50:00,62.4,54.0,29.44,SW,233,6.7,10.5,74,0.00,,,0.12,VWS V14.01,2013-05-12 15:50:00,
2013-05-12 11:55:00,63.0,53.8,29.44,West,261,5.8,10.5,72,0.00,,,0.12,VWS V14.01,2013-05-12 15:55:00,
2013-05-12 12:00:00,63.5,54.3,29.44,West,260,5.3,5.3,72,0.00,,,0.12,VWS V14.01,2013-05-12 16:00:00,
2013-05-12 12:05:00,63.1,51.2,29.44,SW,221,5.3,7.6,65,0.00,,,0.12,VWS V14.01,2013-05-12 16:05:00,
2013-05-12 12:10:00,62.4,48.4,29.44,WSW,237,8.0,8.0,60,0.00,,,0.12,VWS V14.01,2013-05-12 16:10:00,
2013-05-12 12:15:00,62.2,48.6,29.44,West,259,4.9,10.0,61,0.00,,,0.12,VWS V14.01,2013-05-12 16:15:00,
2013-05-12 12:20:00,62.4,48.8,29.44,WSW,249,6.7,10.5,61,0.00,,,0.12,VWS V14.01,2013-05-12 16:20:00,
2013-05-12 12:25:00,62.6,48.1,29.44,West,281,5.8,10.5,59,0.00,,,0.12,VWS V14.01,2013-05-12 16:25:00,
2013-05-12 12:30:00,62.4,47.0,29.44,WSW,255,7.1,10.5,57,0.00,,,0.12,VWS V14.01,2013-05-12 16:30:00,
2013-05-12 12:35:00,62.1,47.1,29.47,West,260,8.0,10.5,58,0.00,,,0.12,VWS V14.01,2013-05-12 16:35:00,
2013-05-12 12:40:00,61.9,46.0,29.47,WSW,249,6.7,10.5,56,0.00,,,0.12,VWS V14.01,2013-05-12 16:40:00,
2013-05-12 12:45:00,61.2,44.9,29.47,West,273,7.1,10.5,55,0.00,,,0.12,VWS V14.01,2013-05-12 16:45:00,
2013-05-12 12:50:00,60.6,45.8,29.47,West,279,4.9,10.5,58,0.00,,,0.12,VWS V14.01,2013-05-12 16:50:00,
2013-05-12 12:55:00,60.6,46.2,29.47,SW,235,7.1,11.8,59,0.00,,,0.12,VWS V14.01,2013-05-12 16:55:00,
2013-05-12 13:00:00,60.6,45.8,29.47,WNW,282,6.7,8.5,58,0.00,,,0.12,VWS V14.01,2013-05-12 17:00:00,
2013-05-12 13:05:00,60.8,46.0,29.47,West,264,7.6,14.1,58,0.00,,,0.12,VWS V14.01,2013-05-12 17:05:00,
2013-05-12 13:10:00,61.2,46.3,29.47,WSW,254,8.9,14.1,58,0.00,,,0.12,VWS V14.01,2013-05-12 17:10:00,
2013-05-12 13:15:00,61.7,46.8,29.47,WNW,284,7.6,14.1,58,0.00,,,0.12,VWS V14.01,2013-05-12 17:15:00,
2013-05-12 13:20:00,61.9,45.5,29.47,WNW,289,10.0,14.1,55,0.00,,,0.12,VWS V14.01,2013-05-12 17:20:00,
2013-05-12 13:25:00,61.7,44.9,29.47,NW,313,7.6,14.1,54,0.00,,,0.12,VWS V14.01,2013-05-12 17:25:00,
2013-05-12 13:30:00,61.9,44.6,29.47,WSW,258,7.6,14.1,53,0.00,,,0.12,VWS V14.01,2013-05-12 17:30:00,
2013-05-12 13:35:00,62.2,44.4,29.44,WSW,256,8.0,14.1,52,0.00,,,0.12,VWS V14.01,2013-05-12 17:35:00,
2013-05-12 13:40:00,62.2,43.4,29.44,WNW,298,6.7,14.1,50,0.00,,,0.12,VWS V14.01,2013-05-12 17:40:00,
2013-05-12 13:45:00,61.9,42.5,29.44,SW,232,6.7,14.1,49,0.00,,,0.12,VWS V14.01,2013-05-12 17:45:00,
2013-05-12 13:50:00,61.9,43.1,29.44,NW,305,7.1,14.1,50,0.00,,,0.12,VWS V14.01,2013-05-12 17:50:00,
2013-05-12 13:55:00,61.7,42.9,29.44,West,267,7.1,14.1,50,0.00,,,0.12,VWS V14.01,2013-05-12 17:55:00,
2013-05-12 14:00:00,62.6,43.2,29.44,WNW,296,7.1,8.9,49,0.00,,,0.12,VWS V14.01,2013-05-12 18:00:00,
2013-05-12 14:05:00,63.9,43.3,29.44,West,276,7.6,10.0,47,0.00,,,0.12,VWS V14.01,2013-05-12 18:05:00,
2013-05-12 14:10:00,64.8,41.8,29.44,West,266,8.0,10.5,43,0.00,,,0.12,VWS V14.01,2013-05-12 18:10:00,
2013-05-12 14:15:00,65.1,40.2,29.44,WNW,300,10.0,10.5,40,0.00,,,0.12,VWS V14.01,2013-05-12 18:15:00,
2013-05-12 14:20:00,65.5,39.2,29.44,SW,232,9.4,10.5,38,0.00,,,0.12,VWS V14.01,2013-05-12 18:20:00,
2013-05-12 14:25:00,65.8,38.2,29.44,WNW,299,7.1,10.5,36,0.00,,,0.12,VWS V14.01,2013-05-12 18:25:00,
2013-05-12 14:30:00,66.4,37.9,29.44,WNW,302,9.4,10.5,35,0.00,,,0.12,VWS V14.01,2013-05-12 18:30:00,
2013-05-12 14:35:00,66.9,38.4,29.44,West,261,9.4,10.5,35,0.00,,,0.12,VWS V14.01,2013-05-12 18:35:00,
2013-05-12 14:40:00,67.3,38.0,29.44,WSW,238,8.0,12.3,34,0.00,,,0.12,VWS V14.01,2013-05-12 18:40:00,
2013-05-12 14:45:00,67.1,37.8,29.44,WNW,301,9.4,12.3,34,0.00,,,0.12,VWS V14.01,2013-05-12 18:45:00,
2013-05-12 14:50:00,66.7,37.5,29.44,WSW,252,5.8,12.3,34,0.00,,,0.12,VWS V14.01,2013-05-12 18:50:00,
2013-05-12 14:55:00,65.8,37.5,29.44,SW,225,4.9,12.3,35,0.00,,,0.12,VWS V14.01,2013-05-12 18:55:00,
2013-05-12 15:00:00,65.7,38.0,29.44,WSW,239,11.8,12.7,36,0.00,,,0.12,VWS V14.01,2013-05-12 19:00:00,
2013-05-12 15:05:00,66.4,37.9,29.44,WNW,300,7.6,11.8,35,0.00,,,0.12,VWS V14.01,2013-05-12 19:05:00,
2013-05-12 15:10:00,66.4,37.2,29.44,West,274,5.8,11.8,34,0.00,,,0.12,VWS V14.01,2013-05-12 19:10:00,
2013-05-12 15:15:00,66.7,37.5,29.44,WSW,254,8.0,11.8,34,0.00,,,0.12,VWS V14.01,2013-05-12 19:15:00,
2013-05-12 15:20:00,67.1,37.8,29.44,West,260,7.6,11.8,34,0.00,,,0.12,VWS V14.01,2013-05-12 19:20:00,
2013-05-12 15:25:00,67.3,37.2,29.44,West,267,8.9,11.8,33,0.00,,,0.12,VWS V14.01,2013-05-12 19:25:00,
2013-05-12 15:30:00,67.5,37.4,29.44,WNW,297,10.0,11.8,33,0.00,,,0.12,VWS V14.01,2013-05-12 19:30:00,
2013-05-12 15:35:00,67.6,36.8,29.44,West,277,12.7,12.7,32,0.00,,,0.12,VWS V14.01,2013-05-12 19:35:00,
2013-05-12 15:40:00,67.3,36.4,29.44,WNW,284,9.8,12.7,32,0.00,,,0.12,VWS V14.01,2013-05-12 19:40:00,
2013-05-12 15:45:00,66.9,36.1,29.44,West,266,7.6,12.7,32,0.00,,,0.12,VWS V14.01,2013-05-12 19:45:00,
2013-05-12 15:50:00,67.1,36.3,29.44,West,276,9.8,12.7,32,0.00,,,0.12,VWS V14.01,2013-05-12 19:50:00,
2013-05-12 15:55:00,67.5,36.6,29.44,WSW,244,9.8,12.7,32,0.00,,,0.12,VWS V14.01,2013-05-12 19:55:00,
2013-05-12 16:00:00,67.6,36.0,29.44,West,281,7.1,12.7,31,0.00,,,0.16,VWS V14.01,2013-05-12 20:00:00,
2013-05-12 16:05:00,67.8,35.3,29.44,WSW,258,7.1,11.8,30,0.00,,,0.12,VWS V14.01,2013-05-12 20:05:00,
2013-05-12 16:10:00,67.5,35.0,29.44,West,281,9.8,12.7,30,0.00,,,0.12,VWS V14.01,2013-05-12 20:10:00,
2013-05-12 16:15:00,66.9,35.3,29.44,West,278,10.0,13.2,31,0.00,,,0.12,VWS V14.01,2013-05-12 20:15:00,
2013-05-12 16:20:00,66.9,34.5,29.44,West,271,10.5,13.2,30,0.00,,,0.12,VWS V14.01,2013-05-12 20:20:00,
2013-05-12 16:25:00,67.1,34.7,29.44,West,274,7.1,13.2,30,0.00,,,0.12,VWS V14.01,2013-05-12 20:25:00,
2013-05-12 16:30:00,67.5,34.1,29.44,West,263,7.1,13.2,29,0.00,,,0.12,VWS V14.01,2013-05-12 20:30:00,
2013-05-12 16:35:00,68.0,33.7,29.44,WNW,287,12.3,13.2,28,0.00,,,0.12,VWS V14.01,2013-05-12 20:35:00,
2013-05-12 16:40:00,68.0,33.7,29.44,West,276,9.4,13.2,28,0.00,,,0.12,VWS V14.01,2013-05-12 20:40:00,
2013-05-12 16:45:00,68.4,34.0,29.44,WSW,239,9.8,14.1,28,0.00,,,0.12,VWS V14.01,2013-05-12 20:45:00,
2013-05-12 16:50:00,68.9,34.5,29.44,West,267,7.1,14.1,28,0.00,,,0.12,VWS V14.01,2013-05-12 20:50:00,
2013-05-12 16:55:00,70.7,34.2,29.44,WNW,298,7.1,14.1,26,0.00,,,0.12,VWS V14.01,2013-05-12 20:55:00,
2013-05-12 17:00:00,73.2,34.3,29.44,WSW,256,8.0,14.1,24,0.00,,,0.12,VWS V14.01,2013-05-12 21:00:00,
2013-05-12 17:05:00,75.0,34.7,29.44,WSW,244,9.4,11.8,23,0.00,,,0.12,VWS V14.01,2013-05-12 21:05:00,
2013-05-12 17:10:00,75.6,34.1,29.44,West,259,7.1,11.8,22,0.00,,,0.12,VWS V14.01,2013-05-12 21:10:00,
2013-05-12 17:15:00,77.0,34.1,29.44,West,276,8.9,11.8,21,0.00,,,0.12,VWS V14.01,2013-05-12 21:15:00,
2013-05-12 17:20:00,81.9,36.9,29.44,SW,229,10.0,11.8,20,0.00,,,0.12,VWS V14.01,2013-05-12 21:20:00,
2013-05-12 17:25:00,83.1,36.6,29.44,West,281,8.0,11.8,19,0.00,,,0.12,VWS V14.01,2013-05-12 21:25:00,
2013-05-12 17:30:00,84.4,36.3,29.44,WNW,286,10.0,11.8,18,0.00,,,0.12,VWS V14.01,2013-05-12 21:30:00,
2013-05-12 17:35:00,84.4,33.3,29.44,WSW,237,7.1,11.8,16,0.00,,,0.12,VWS V14.01,2013-05-12 21:35:00,
2013-05-12 17:40:00,85.8,34.5,29.44,West,271,6.7,11.8,16,0.00,,,0.12,VWS V14.01,2013-05-12 21:40:00,
2013-05-12 17:45:00,84.4,33.3,29.44,WSW,245,7.1,12.3,16,0.00,,,0.12,VWS V14.01,2013-05-12 21:45:00,
2013-05-12 17:50:00,82.8,32.0,29.44,West,274,7.6,12.3,16,0.00,,,0.12,VWS V14.01,2013-05-12 21:50:00,
2013-05-12 17:55:00,83.5,32.6,29.44,SW,232,9.8,12.3,16,0.00,,,0.12,VWS V14.01,2013-05-12 21:55:00,
2013-05-12 18:00:00,81.7,32.7,29.44,West,269,8.0,12.3,17,0.00,,,0.12,VWS V14.01,2013-05-12 22:00:00,
2013-05-12 18:05:00,79.0,30.5,29.44,West,264,7.6,11.4,17,0.00,,,0.12,VWS V14.01,2013-05-12 22:05:00,
2013-05-12 18:10:00,78.1,31.2,29.44,WNW,291,7.6,11.4,18,0.00,,,0.12,VWS V14.01,2013-05-12 22:10:00,
2013-05-12 18:15:00,77.9,31.0,29.44,WNW,289,8.0,12.7,18,0.00,,,0.12,VWS V14.01,2013-05-12 22:15:00,
2013-05-12 18:20:00,76.3,29.7,29.44,West,266,7.1,12.7,18,0.00,,,0.12,VWS V14.01,2013-05-12 22:20:00,
2013-05-12 18:25:00,76.3,29.7,29.44,WNW,294,7.6,12.7,18,0.00,,,0.12,VWS V14.01,2013-05-12 22:25:00,
2013-05-12 18:30:00,74.8,32.3,29.44,NW,311,8.0,12.7,21,0.00,,,0.12,VWS V14.01,2013-05-12 22:30:00,
2013-05-12 18:35:00,73.6,31.3,29.44,SW,233,9.4,12.7,21,0.00,,,0.12,VWS V14.01,2013-05-12 22:35:00,
2013-05-12 18:40:00,71.6,29.6,29.44,NW,312,9.8,12.7,21,0.00,,,0.12,VWS V14.01,2013-05-12 22:40:00,
2013-05-12 18:45:00,70.0,29.4,29.44,WNW,300,12.7,12.7,22,0.00,,,0.12,VWS V14.01,2013-05-12 22:45:00,
2013-05-12 18:50:00,69.4,30.1,29.47,West,271,9.4,12.7,23,0.00,,,0.12,VWS V14.01,2013-05-12 22:50:00,
2013-05-12 18:55:00,69.8,30.4,29.47,WNW,298,8.0,12.7,23,0.00,,,0.12,VWS V14.01,2013-05-12 22:55:00,
2013-05-12 19:00:00,69.3,29.9,29.47,WNW,294,15.4,15.4,23,0.00,,,0.16,VWS V14.01,2013-05-12 23:00:00,
2013-05-12 19:05:00,67.3,29.3,29.47,WNW,291,12.3,15.4,24,0.00,,,0.12,VWS V14.01,2013-05-12 23:05:00,
2013-05-12 19:10:00,64.9,30.2,29.47,WNW,294,14.9,17.2,27,0.00,,,0.12,VWS V14.01,2013-05-12 23:10:00,
2013-05-12 19:15:00,62.1,32.6,29.47,WNW,299,11.4,17.2,33,0.00,,,0.12,VWS V14.01,2013-05-12 23:15:00,
2013-05-12 19:20:00,60.8,33.0,29.47,West,277,11.8,17.2,35,0.00,,,0.12,VWS V14.01,2013-05-12 23:20:00,
2013-05-12 19:25:00,60.1,34.4,29.47,WNW,298,9.8,17.2,38,0.00,,,0.12,VWS V14.01,2013-05-12 23:25:00,
2013-05-12 19:30:00,59.2,34.3,29.47,WNW,282,10.5,17.2,39,0.00,,,0.12,VWS V14.01,2013-05-12 23:30:00,
2013-05-12 19:35:00,58.6,35.6,29.50,West,273,10.5,17.2,42,0.00,,,0.12,VWS V14.01,2013-05-12 23:35:00,
2013-05-12 19:40:00,58.3,36.5,29.50,NW,306,9.4,17.2,44,0.00,,,0.12,VWS V14.01,2013-05-12 23:40:00,
2013-05-12 19:45:00,57.9,37.3,29.50,West,280,10.0,17.2,46,0.00,,,0.12,VWS V14.01,2013-05-12 23:45:00,
2013-05-12 19:50:00,57.7,37.7,29.50,NW,306,8.0,17.2,47,0.00,,,0.12,VWS V14.01,2013-05-12 23:50:00,
2013-05-12 19:55:00,57.6,39.1,29.50,WNW,293,9.8,17.2,50,0.00,,,0.12,VWS V14.01,2013-05-12 23:55:00,
2013-05-12 20:00:00,57.6,40.1,29.50,NW,308,9.8,17.2,52,0.00,,,0.12,VWS V14.01,2013-05-13 00:00:00,
2013-05-12 20:05:00,57.6,40.1,29.50,NW,306,8.9,11.4,52,0.00,,,0.12,VWS V14.01,2013-05-13 00:05:00,
2013-05-12 20:10:00,57.6,40.6,29.50,WNW,293,9.4,11.4,53,0.00,,,0.12,VWS V14.01,2013-05-13 00:10:00,
2013-05-12 20:15:00,57.6,40.1,29.50,WNW,292,7.6,11.4,52,0.00,,,0.12,VWS V14.01,2013-05-13 00:15:00,
2013-05-12 20:20:00,57.6,40.1,29.50,WNW,283,5.3,11.4,52,0.00,,,0.12,VWS V14.01,2013-05-13 00:20:00,
2013-05-12 20:25:00,57.6,40.6,29.50,NW,323,1.8,11.4,53,0.00,,,0.12,VWS V14.01,2013-05-13 00:25:00,
2013-05-12 20:30:00,57.6,36.4,29.50,North,357,7.1,11.4,45,0.00,,,0.12,VWS V14.01,2013-05-13 00:30:00,
2013-05-12 20:35:00,57.9,32.5,29.53,NNW,342,7.1,11.4,38,0.00,,,0.12,VWS V14.01,2013-05-13 00:35:00,
2013-05-12 20:40:00,58.3,30.8,29.53,NNW,330,10.0,12.3,35,0.00,,,0.12,VWS V14.01,2013-05-13 00:40:00,
2013-05-12 20:45:00,58.5,29.5,29.53,NNW,330,10.5,12.3,33,0.00,,,0.12,VWS V14.01,2013-05-13 00:45:00,
2013-05-12 20:50:00,58.6,27.3,29.53,NNW,341,12.3,12.3,30,0.00,,,0.12,VWS V14.01,2013-05-13 00:50:00,
2013-05-12 20:55:00,58.6,27.3,29.53,North,357,10.5,12.3,30,0.00,,,0.12,VWS V14.01,2013-05-13 00:55:00,
2013-05-12 21:00:00,58.5,27.2,29.53,NW,318,9.4,12.3,30,0.00,,,0.12,VWS V14.01,2013-05-13 01:00:00,
2013-05-12 21:05:00,58.3,26.2,29.53,NNE,32,5.8,9.8,29,0.00,,,0.12,VWS V14.01,2013-05-13 01:05:00,
2013-05-12 21:10:00,58.1,26.0,29.53,NNW,330,5.3,10.5,29,0.00,,,0.12,VWS V14.01,2013-05-13 01:10:00,
2013-05-12 21:15:00,58.1,26.9,29.53,North,6,5.8,10.5,30,0.00,,,0.12,VWS V14.01,2013-05-13 01:15:00,
2013-05-12 21:20:00,57.9,27.5,29.56,North,0,5.3,10.5,31,0.00,,,0.12,VWS V14.01,2013-05-13 01:20:00,
2013-05-12 21:25:00,57.9,27.5,29.56,NNW,348,6.2,10.5,31,0.00,,,0.12,VWS V14.01,2013-05-13 01:25:00,
2013-05-12 21:30:00,57.7,28.1,29.56,North,357,5.8,10.5,32,0.00,,,0.12,VWS V14.01,2013-05-13 01:30:00,
2013-05-12 21:35:00,57.7,28.9,29.56,North,0,7.1,10.5,33,0.00,,,0.12,VWS V14.01,2013-05-13 01:35:00,
2013-05-12 21:40:00,57.6,26.4,29.56,NW,326,9.4,10.5,30,0.00,,,0.12,VWS V14.01,2013-05-13 01:40:00,
2013-05-12 21:45:00,57.6,25.6,29.56,North,0,10.5,10.5,29,0.00,,,0.12,VWS V14.01,2013-05-13 01:45:00,
2013-05-12 21:50:00,57.4,25.4,29.56,ENE,62,7.1,10.5,29,0.00,,,0.12,VWS V14.01,2013-05-13 01:50:00,
2013-05-12 21:55:00,57.2,25.2,29.56,NNE,31,7.1,10.5,29,0.00,,,0.12,VWS V14.01,2013-05-13 01:55:00,
2013-05-12 22:00:00,56.8,24.1,29.56,NNW,346,7.1,11.8,28,0.00,,,0.12,VWS V14.01,2013-05-13 02:00:00,
2013-05-12 22:05:00,56.8,23.2,29.56,NW,322,6.7,14.5,27,0.00,,,0.12,VWS V14.01,2013-05-13 02:05:00,
2013-05-12 22:10:00,56.7,22.2,29.56,NW,310,8.0,16.7,26,0.00,,,0.12,VWS V14.01,2013-05-13 02:10:00,
2013-05-12 22:15:00,56.7,22.2,29.56,North,10,10.0,16.7,26,0.00,,,0.12,VWS V14.01,2013-05-13 02:15:00,
2013-05-12 22:20:00,56.7,22.2,29.59,North,0,11.4,16.7,26,0.00,,,0.12,VWS V14.01,2013-05-13 02:20:00,
2013-05-12 22:25:00,56.3,21.9,29.59,North,3,5.3,16.7,26,0.00,,,0.12,VWS V14.01,2013-05-13 02:25:00,
2013-05-12 22:30:00,56.3,21.9,29.59,North,5,6.7,16.7,26,0.00,,,0.12,VWS V14.01,2013-05-13 02:30:00,
2013-05-12 22:35:00,55.9,21.6,29.59,NNE,27,9.4,16.7,26,0.00,,,0.12,VWS V14.01,2013-05-13 02:35:00,
2013-05-12 22:40:00,55.8,20.5,29.59,NNW,343,8.9,16.7,25,0.00,,,0.12,VWS V14.01,2013-05-13 02:40:00,
2013-05-12 22:45:00,55.6,20.3,29.59,NNE,32,7.1,16.7,25,0.00,,,0.12,VWS V14.01,2013-05-13 02:45:00,
2013-05-12 22:50:00,55.4,20.2,29.59,North,0,7.6,16.7,25,0.00,,,0.12,VWS V14.01,2013-05-13 02:50:00,
2013-05-12 22:55:00,55.2,21.0,29.59,North,0,4.9,16.7,26,0.00,,,0.12,VWS V14.01,2013-05-13 02:55:00,
2013-05-12 23:00:00,55.0,20.8,29.59,NNE,23,8.0,16.7,26,0.00,,,0.12,VWS V14.01,2013-05-13 03:00:00,
2013-05-12 23:05:00,55.0,20.8,29.59,NNE,24,8.0,8.5,26,0.00,,,0.12,VWS V14.01,2013-05-13 03:05:00,
2013-05-12 23:10:00,54.9,20.6,29.59,North,357,10.0,10.0,26,0.00,,,0.12,VWS V14.01,2013-05-13 03:10:00,
2013-05-12 23:15:00,54.9,20.6,29.59,NNW,342,4.9,10.0,26,0.00,,,0.12,VWS V14.01,2013-05-13 03:15:00,
2013-05-12 23:20:00,54.7,20.5,29.62,NW,320,10.0,10.0,26,0.00,,,0.12,VWS V14.01,2013-05-13 03:20:00,
2013-05-12 23:25:00,54.7,20.5,29.62,NNW,345,5.8,10.0,26,0.00,,,0.12,VWS V14.01,2013-05-13 03:25:00,
2013-05-12 23:30:00,54.5,20.3,29.62,North,353,7.6,10.0,26,0.00,,,0.12,VWS V14.01,2013-05-13 03:30:00,
2013-05-12 23:35:00,54.5,20.3,29.62,NNW,340,5.3,10.0,26,0.00,,,0.12,VWS V14.01,2013-05-13 03:35:00,
2013-05-12 23:40:00,54.3,20.2,29.62,NNW,338,6.2,10.0,26,0.00,,,0.12,VWS V14.01,2013-05-13 03:40:00,
2013-05-12 23:45:00,54.3,20.2,29.62,NNW,344,7.6,10.0,26,0.00,,,0.12,VWS V14.01,2013-05-13 03:45:00,
2013-05-12 23:50:00,54.3,20.2,29.62,NNW,329,5.3,10.0,26,0.00,,,0.12,VWS V14.01,2013-05-13 03:50:00,
2013-05-12 23:55:00,54.3,21.1,29.62,North,353,8.0,10.0,27,0.00,,,0.12,VWS V14.01,2013-05-13 03:55:00,